Hillsdale, MI

11:22 PM EST on November 21, 2017 (GMT -0500)
Hillsdale Municipal

Weather History for KJYM - August, 2013

Change the Weather History Date:

Friday, August 2, 2013

  Actual Average Record
Temperature  
Mean Temperature 64 °F -  
Max Temperature 74 °F 81 °F 99 °F (1988)
Min Temperature 53 °F 56 °F 45 °F (1948)
Degree Days  
Heating Degree Days 2    
Growing Degree Days 14 (Base 50)    
Moisture  
Dew Point 60 °F    
Average Humidity 90    
Maximum Humidity 100    
Minimum Humidity 73    
Precipitation  
Precipitation 0.00 in - - ()
Sea Level Pressure  
Sea Level Pressure 29.94 in    
Wind  
Wind Speed 3 mph (SW)    
Max Wind Speed 13 mph    
Max Gust Speed 16 mph    
Visibility 9 miles    
Events Fog , Rain    
Averages and records for this station are not official NWS values.
T = Trace of Precipitation, MM = Missing Value Source: NWS Daily Summary

Daily Weather History Graph

Daily Weather History Graph

Search for Another Location

Airport or City:

Trip Planner

Search our weather history database for the weather conditions in past years. The results will help you decide how hot, cold, wet, or windy it might be!

Date:

Astronomy

Aug. 02, 2013 Rise Set
Actual Time 6:33 AM EDT 8:55 PM EDT
Civil Twilight 6:01 AM EDT 9:26 PM EDT
Nautical Twilight 5:23 AM EDT 10:05 PM EDT
Astronomical Twilight 4:39 AM EDT 10:48 PM EDT
Moon 2:52 AM EDT (8/2) 5:53 PM EDT (8/2)
Length of Visible Light 15h 24m
Length of Day
14h 22m
Waning Crescent, 16% of the Moon is Illuminated
Aug 2
Waning Crescent
Aug 6
New
Aug 14
First Quarter
Aug 20
Full
Aug 28
Last Quarter

Hourly Weather History & Observations

Time (EDT) Temp. Dew Point Humidity Pressure Visibility Wind Dir Wind Speed Gust Speed Precip Events Conditions
12:14 AM 55.6 °F 54.5 °F 96% 29.98 in 10.0 mi Calm Calm - N/A   Clear
12:34 AM 56.5 °F 55.2 °F 96% 29.97 in 10.0 mi Calm Calm - N/A   Clear
12:54 AM 56.1 °F 54.7 °F 95% 29.97 in 10.0 mi Calm Calm - N/A   Clear
1:15 AM 56.3 °F 54.9 °F 95% 29.98 in 10.0 mi West 3.5 mph - N/A   Clear
1:34 AM 57.4 °F 55.0 °F 92% 29.97 in 10.0 mi Calm Calm - N/A   Clear
1:55 AM 56.5 °F 54.1 °F 92% 29.96 in 10.0 mi Calm Calm - N/A   Clear
2:15 AM 54.9 °F 53.2 °F 94% 29.95 in 10.0 mi Calm Calm - N/A   Clear
2:34 AM 54.7 °F 53.8 °F 97% 29.95 in 10.0 mi Calm Calm - N/A   Clear
2:55 AM 55.0 °F 53.4 °F 94% 29.95 in 10.0 mi Calm Calm - N/A   Clear
3:15 AM 54.7 °F 53.6 °F 96% 29.95 in 10.0 mi Calm Calm - N/A   Clear
3:34 AM 53.6 °F 52.7 °F 97% 29.94 in 10.0 mi Calm Calm - N/A   Clear
3:55 AM 53.1 °F 52.2 °F 97% 29.95 in 10.0 mi Calm Calm - N/A   Clear
4:15 AM 53.1 °F 52.3 °F 97% 29.95 in 10.0 mi Calm Calm - N/A   Clear
4:34 AM 55.6 °F 54.0 °F 94% 29.95 in 10.0 mi Calm Calm - N/A   Clear
4:55 AM 54.1 °F 52.5 °F 94% 29.95 in 10.0 mi Calm Calm - N/A   Clear
5:15 AM 54.3 °F 53.1 °F 95% 29.95 in 10.0 mi Calm Calm - N/A   Clear
5:34 AM 57.2 °F 53.4 °F 87% 29.95 in 10.0 mi Calm Calm - N/A   Clear
5:55 AM 54.7 °F 52.3 °F 92% 29.96 in 10.0 mi Calm Calm - N/A   Clear
6:14 AM 58.1 °F 54.0 °F 86% 29.96 in 10.0 mi WSW 3.5 mph - N/A   Scattered Clouds
6:34 AM 60.3 °F 54.3 °F 81% 29.96 in 10.0 mi WSW 3.5 mph - N/A   Mostly Cloudy
6:55 AM 61.2 °F 54.7 °F 79% 29.96 in 10.0 mi WSW 3.5 mph - N/A   Mostly Cloudy
7:14 AM 61.5 °F 55.4 °F 80% 29.95 in 10.0 mi Calm Calm - N/A   Scattered Clouds
7:35 AM 61.7 °F 56.1 °F 82% 29.96 in 10.0 mi Calm Calm - N/A   Scattered Clouds
7:54 AM 62.8 °F 55.9 °F 78% 29.95 in 10.0 mi Calm Calm - N/A   Scattered Clouds
8:14 AM 63.0 °F 56.1 °F 78% 29.94 in 10.0 mi SSW 5.8 mph - N/A   Overcast
8:35 AM 64.9 °F 56.1 °F 73% 29.94 in 10.0 mi SW 3.5 mph - N/A   Scattered Clouds
8:54 AM 64.9 °F 57.0 °F 75% 29.95 in 10.0 mi Calm Calm - N/A Rain Light Rain
9:15 AM 64.6 °F 57.0 °F 76% 29.98 in 10.0 mi WSW 4.6 mph - N/A Rain Light Rain
9:35 AM 63.9 °F 57.9 °F 81% 29.99 in 10.0 mi West 8.1 mph - N/A Rain Light Rain
9:54 AM 61.9 °F 59.4 °F 91% 29.98 in 7.0 mi WSW 9.2 mph - N/A Rain Rain
10:15 AM 61.2 °F 60.1 °F 96% 29.98 in 5.0 mi SW 6.9 mph - N/A Rain Rain
10:35 AM 61.5 °F 60.8 °F 97% 29.98 in 10.0 mi WSW 4.6 mph - N/A Rain Light Rain
10:54 AM 61.9 °F 61.0 °F 97% 29.98 in 10.0 mi SW 8.1 mph - N/A Rain Light Rain
11:15 AM 62.4 °F 61.5 °F 97% 29.96 in 10.0 mi SSW 9.2 mph - N/A Rain Light Rain
11:34 AM 62.2 °F 61.2 °F 96% 29.96 in 10.0 mi SW 8.1 mph - N/A   Scattered Clouds
11:55 AM 62.1 °F 61.0 °F 96% 29.97 in 10.0 mi SSW 6.9 mph - N/A Rain Light Rain
12:15 PM 61.9 °F 61.2 °F 97% 29.96 in 4.0 mi SSW 5.8 mph - N/A Rain Rain
12:34 PM 62.2 °F 61.5 °F 97% 29.95 in 7.0 mi South 5.8 mph - N/A Rain Light Rain
12:55 PM 62.8 °F 62.1 °F 97% 29.95 in 7.0 mi SSW 6.9 mph - N/A   Drizzle
1:14 PM 63.7 °F 63.0 °F 97% 29.94 in 10.0 mi South 8.1 mph - N/A   Light Drizzle
1:34 PM 63.5 °F 62.8 °F 97% 29.95 in 5.0 mi South 6.9 mph - N/A Rain Rain
1:55 PM 64.0 °F 62.8 °F 96% 29.94 in 10.0 mi SSW 12.7 mph - N/A Rain Light Rain
2:14 PM 64.0 °F 62.2 °F 94% 29.94 in 10.0 mi SSW 6.9 mph - N/A   Overcast
2:34 PM 66.4 °F 63.3 °F 90% 29.93 in 10.0 mi SSW 11.5 mph 16.1 mph N/A   Mostly Cloudy
2:55 PM 66.6 °F 62.8 °F 88% 29.92 in 10.0 mi SSW 9.2 mph 16.1 mph N/A   Overcast
3:14 PM 69.4 °F 64.0 °F 83% 29.92 in 10.0 mi SSW 9.2 mph - N/A   Mostly Cloudy
3:35 PM 69.1 °F 64.2 °F 84% 29.91 in 10.0 mi SSW 6.9 mph - N/A   Mostly Cloudy
3:55 PM 70.2 °F 64.6 °F 82% 29.91 in 10.0 mi SW 10.4 mph - N/A   Scattered Clouds
4:14 PM 71.4 °F 65.8 °F 82% 29.91 in 10.0 mi SW 8.1 mph - N/A   Clear
4:35 PM 72.1 °F 66.0 °F 81% 29.89 in 10.0 mi SW 6.9 mph - N/A   Scattered Clouds
4:55 PM 73.0 °F 65.1 °F 76% 29.89 in 10.0 mi WSW 8.1 mph 16.1 mph N/A   Scattered Clouds
5:14 PM 73.0 °F 65.1 °F 76% 29.89 in 10.0 mi WSW 8.1 mph - N/A   Scattered Clouds
5:35 PM 72.3 °F 65.8 °F 80% 29.88 in 10.0 mi WSW 9.2 mph - N/A   Overcast
5:54 PM 72.9 °F 66.4 °F 80% 29.88 in 10.0 mi SW 6.9 mph - N/A   Mostly Cloudy
6:14 PM 73.0 °F 66.9 °F 81% 29.88 in 10.0 mi WSW 4.6 mph - N/A   Mostly Cloudy
6:35 PM 74.7 °F 67.5 °F 78% 29.88 in 10.0 mi West 3.5 mph - N/A   Mostly Cloudy
6:54 PM 74.3 °F 67.5 °F 79% 29.88 in 10.0 mi WSW 4.6 mph - N/A   Scattered Clouds
7:14 PM 73.8 °F 67.8 °F 82% 29.89 in 10.0 mi Calm Calm - N/A   Mostly Cloudy
7:35 PM 73.8 °F 67.6 °F 81% 29.89 in 10.0 mi West 3.5 mph - N/A   Mostly Cloudy
7:54 PM 73.0 °F 68.2 °F 85% 29.89 in 10.0 mi Calm Calm - N/A   Scattered Clouds
8:15 PM 71.2 °F 68.5 °F 91% 29.90 in 10.0 mi Calm Calm - N/A   Clear
8:35 PM 71.1 °F 67.6 °F 89% 29.91 in 10.0 mi West 3.5 mph - N/A   Clear
8:54 PM 70.0 °F 67.1 °F 91% 29.91 in 10.0 mi West 3.5 mph - N/A   Clear
9:15 PM 68.7 °F 66.6 °F 93% 29.92 in 10.0 mi Calm Calm - N/A   Clear
9:35 PM 68.2 °F 66.4 °F 94% 29.92 in 10.0 mi Calm Calm - N/A   Clear
9:54 PM 66.0 °F 65.5 °F 98% 29.93 in 10.0 mi Calm Calm - N/A   Clear
10:15 PM 65.5 °F 65.1 °F 99% 29.94 in 7.0 mi Calm Calm - N/A   Clear
10:34 PM 64.8 °F 64.4 °F 99% 29.94 in 7.0 mi Calm Calm - N/A   Clear
10:54 PM 64.0 °F 63.9 °F 99% 29.94 in 5.0 mi Calm Calm - N/A   Clear
11:15 PM 63.3 °F 63.1 °F 99% 29.94 in 4.0 mi Calm Calm - N/A   Clear
11:34 PM 62.6 °F 62.4 °F 99% 29.94 in 0.5 mi Calm Calm - N/A Fog Fog
11:54 PM 62.4 °F 62.4 °F 100% 29.94 in 1.2 mi Calm Calm - N/A   Mostly Cloudy